Terminal Aerodrome Forecast
Issued by NWS Sioux Falls, SD

Home | Current Version | Previous Version | Text Only | Print | Product List | Glossary On
Versions: 1 2 3 4 5 6 7 8 9 10 11 12 13 14 15 16 17 18 19 20 21 22 23 24 25 26 27 28 29 30 31 32 33 34 35 36 37 38 39 40 41 42
000
FTUS43 KFSD 232323
TAFSUX
TAF
KSUX 232323Z 2400/2424 33018G26KT P6SM SCT020 BKN045
     FM240230 32022G32KT P6SM BKN020 OVC040=

USA.gov is the U.S. government's official web portal to all federal, state and local government web resources and services.